TimePDT,TemperatureF,Dew PointF,Humidity,Sea Level PressureIn,VisibilityMPH,Wind Direction,Wind SpeedMPH,Gust SpeedMPH,PrecipitationIn,Events,Conditions,WindDirDegrees,DateUTC
12:53 AM,52.0,44.1,74,29.95,10.0,South,4.6,-,N/A,,Clear,180,2013-10-13 07:53:00
1:53 AM,50.0,44.1,80,29.96,10.0,ESE,6.9,-,N/A,,Partly Cloudy,110,2013-10-13 08:53:00
2:05 AM,51.8,44.6,76,29.95,10.0,SE,4.6,-,N/A,,Mostly Cloudy,130,2013-10-13 09:05:00
2:50 AM,51.8,44.6,76,29.95,10.0,SSE,5.8,-,N/A,,Partly Cloudy,160,2013-10-13 09:50:00
2:53 AM,51.1,45.0,80,29.95,10.0,SE,5.8,-,N/A,,Partly Cloudy,140,2013-10-13 09:53:00
3:53 AM,50.0,46.0,86,29.95,10.0,Calm,Calm,-,N/A,,Clear,0,2013-10-13 10:53:00
4:53 AM,50.0,46.0,86,29.96,10.0,SSE,3.5,-,N/A,,Clear,150,2013-10-13 11:53:00
5:53 AM,48.0,45.0,89,29.97,10.0,ESE,3.5,-,N/A,,Clear,120,2013-10-13 12:53:00
6:53 AM,48.0,44.1,86,29.99,10.0,Calm,Calm,-,N/A,,Clear,0,2013-10-13 13:53:00
7:53 AM,48.9,46.0,90,30.00,10.0,SE,3.5,-,N/A,,Partly Cloudy,140,2013-10-13 14:53:00
8:53 AM,52.0,46.0,80,30.02,10.0,Calm,Calm,-,N/A,,Partly Cloudy,0,2013-10-13 15:53:00
9:53 AM,57.0,46.9,69,30.03,10.0,Calm,Calm,-,N/A,,Clear,0,2013-10-13 16:53:00
10:53 AM,63.0,46.9,56,30.02,10.0,Variable,3.5,-,N/A,,Clear,0,2013-10-13 17:53:00
11:53 AM,66.0,42.1,42,30.01,10.0,West,8.1,-,N/A,,Clear,270,2013-10-13 18:53:00
12:53 PM,68.0,42.1,39,30.01,10.0,WNW,8.1,16.1,N/A,,Partly Cloudy,300,2013-10-13 19:53:00
1:53 PM,70.0,42.1,36,29.99,10.0,West,10.4,-,N/A,,Partly Cloudy,280,2013-10-13 20:53:00
2:53 PM,70.0,43.0,38,29.99,10.0,West,10.4,-,N/A,,Partly Cloudy,280,2013-10-13 21:53:00
3:53 PM,72.0,41.0,33,29.98,10.0,WNW,15.0,-,N/A,,Partly Cloudy,290,2013-10-13 22:53:00
4:53 PM,71.1,41.0,34,29.99,10.0,WNW,15.0,-,N/A,,Partly Cloudy,290,2013-10-13 23:53:00
5:53 PM,68.0,43.0,40,30.00,10.0,WNW,16.1,23.0,N/A,,Clear,300,2013-10-14 00:53:00
6:53 PM,64.0,41.0,43,30.02,10.0,NNW,10.4,-,N/A,,Clear,330,2013-10-14 01:53:00
7:53 PM,63.0,43.0,48,30.04,10.0,NW,5.8,-,N/A,,Clear,320,2013-10-14 02:53:00
8:53 PM,61.0,44.1,54,30.05,10.0,Calm,Calm,-,N/A,,Clear,0,2013-10-14 03:53:00
9:53 PM,59.0,45.0,60,30.06,10.0,WSW,3.5,-,N/A,,Clear,250,2013-10-14 04:53:00
10:53 PM,59.0,46.0,62,30.07,10.0,Calm,Calm,-,N/A,,Clear,0,2013-10-14 05:53:00
11:53 PM,55.0,44.1,67,30.07,10.0,SSE,3.5,-,N/A,,Clear,160,2013-10-14 06:53:00